Weather History for KVYS - November, 2013

Change the Weather History Date:

Thursday, November 7, 2013

  Actual Average Record
Temperature  
Mean Temperature 36 °F -  
Max Temperature 45 °F 50 °F 72 °F (1966)
Min Temperature 28 °F 33 °F 10 °F (1991)
Degree Days  
Heating Degree Days 28    
Moisture  
Dew Point 30 °F    
Average Humidity 83    
Maximum Humidity 92    
Minimum Humidity 66    
Precipitation  
Precipitation 0.00 in - - ()
Sea Level Pressure  
Sea Level Pressure 30.25 in    
Wind  
Wind Speed 10 mph (West)    
Max Wind Speed 21 mph    
Max Gust Speed 26 mph    
Visibility 10 miles    
Events      
Averages and records for this station are not official NWS values.
T = Trace of Precipitation, MM = Missing Value Source: NWS Daily Summary

Daily Weather History Graph

Daily Weather History Graph

Search for Another Location

Airport or City:

Trip Planner

Search our weather history database for the weather conditions in past years. The results will help you decide how hot, cold, wet, or windy it might be!

Date:

Astronomy

Nov. 07, 2013 Rise Set
Actual Time 6:35 AM CST 4:44 PM CST
Civil Twilight 6:06 AM CST 5:13 PM CST
Nautical Twilight 5:33 AM CST 5:46 PM CST
Astronomical Twilight 5:01 AM CST 6:18 PM CST
Moon 10:44 AM CST (11/7) 8:55 PM CST (11/7)
Length of Visible Light 11h 07m
Length of Day
10h 08m
Waxing Crescent, 23% of the Moon is Illuminated
Nov 7
Waxing Crescent
Nov 9
First Quarter
Nov 17
Full
Nov 25
Last Quarter
Dec 2
New

Hourly Weather History & Observations

Time (CST) Temp. Windchill Dew Point Humidity Pressure Visibility Wind Dir Wind Speed Gust Speed Precip Events Conditions
12:15 AM 34.0 °F 26.0 °F 29.8 °F 85% 30.21 in 10.0 mi WNW 10.4 mph - N/A   Clear
12:35 AM 33.4 °F 25.9 °F 29.3 °F 85% 30.21 in 10.0 mi WNW 9.2 mph - N/A   Clear
12:55 AM 33.4 °F 25.9 °F 29.3 °F 85% 30.22 in 10.0 mi WNW 9.2 mph - N/A   Clear
1:15 AM 33.3 °F 25.1 °F 29.3 °F 85% 30.23 in 10.0 mi WNW 10.4 mph - N/A   Clear
1:35 AM 33.1 °F 26.1 °F 29.3 °F 86% 30.23 in 10.0 mi WNW 8.1 mph - N/A   Clear
1:55 AM 33.1 °F 25.5 °F 28.9 °F 85% 30.23 in 10.0 mi WNW 9.2 mph - N/A   Clear
2:15 AM 32.5 °F 25.5 °F 28.8 °F 86% 30.23 in 10.0 mi WNW 8.1 mph - N/A   Clear
2:35 AM 32.2 °F 25.0 °F 28.8 °F 87% 30.23 in 10.0 mi WNW 8.1 mph - N/A   Clear
2:55 AM 32.2 °F 24.4 °F 28.9 °F 88% 30.23 in 10.0 mi WNW 9.2 mph - N/A   Clear
3:15 AM 32.0 °F 25.6 °F 28.4 °F 87% 30.24 in 10.0 mi West 6.9 mph - N/A   Clear
3:35 AM 30.9 °F 23.5 °F 27.9 °F 88% 30.24 in 10.0 mi West 8.1 mph - N/A   Clear
3:55 AM 30.2 °F 23.4 °F 27.5 °F 90% 30.24 in 10.0 mi West 6.9 mph - N/A   Clear
4:15 AM 29.8 °F 21.5 °F 27.3 °F 90% 30.25 in 10.0 mi West 9.2 mph - N/A   Clear
4:35 AM 29.8 °F 22.2 °F 27.3 °F 90% 30.24 in 10.0 mi West 8.1 mph - N/A   Clear
4:55 AM 29.8 °F 22.2 °F 27.3 °F 90% 30.25 in 10.0 mi West 8.1 mph - N/A   Clear
5:15 AM 29.1 °F 20.0 °F 26.6 °F 90% 30.25 in 10.0 mi West 10.4 mph - N/A   Clear
5:35 AM 29.7 °F 21.3 °F 27.0 °F 90% 30.25 in 10.0 mi West 9.2 mph - N/A   Clear
5:55 AM 29.3 °F 21.5 °F 26.6 °F 90% 30.25 in 10.0 mi West 8.1 mph - N/A   Clear
6:15 AM 28.8 °F 21.7 °F 26.1 °F 90% 30.25 in 10.0 mi West 6.9 mph - N/A   Clear
6:35 AM 29.3 °F 24.3 °F 26.6 °F 90% 30.25 in 10.0 mi WSW 4.6 mph - N/A   Clear
6:55 AM 29.8 °F 23.0 °F 26.6 °F 88% 30.25 in 10.0 mi WSW 6.9 mph - N/A   Clear
7:15 AM 29.3 °F 22.3 °F 26.1 °F 88% 30.26 in 10.0 mi WSW 6.9 mph - N/A   Clear
7:35 AM 32.0 °F 25.6 °F 28.4 °F 87% 30.27 in 10.0 mi WSW 6.9 mph - N/A   Clear
7:55 AM 33.3 °F 27.1 °F 28.2 °F 82% 30.27 in 10.0 mi WSW 6.9 mph - N/A   Clear
8:15 AM 35.1 °F 29.3 °F 29.1 °F 79% 30.27 in 10.0 mi SW 6.9 mph - N/A   Clear
8:35 AM 36.0 °F 29.6 °F 29.3 °F 77% 30.28 in 10.0 mi SW 8.1 mph - N/A   Scattered Clouds
8:55 AM 36.9 °F 30.7 °F 29.7 °F 75% 30.28 in 10.0 mi SW 8.1 mph - N/A   Mostly Cloudy
9:15 AM 38.1 °F 31.7 °F 29.7 °F 72% 30.27 in 10.0 mi SW 9.2 mph - N/A   Overcast
9:35 AM 39.6 °F 33.0 °F 30.2 °F 69% 30.27 in 10.0 mi WSW 10.4 mph - N/A   Overcast
9:55 AM 41.2 °F 35.0 °F 31.1 °F 67% 30.26 in 10.0 mi WSW 10.4 mph - N/A   Scattered Clouds
10:15 AM 42.1 °F 36.1 °F 32.0 °F 67% 30.26 in 10.0 mi WSW 10.4 mph - N/A   Mostly Cloudy
10:35 AM 42.1 °F 35.7 °F 32.2 °F 68% 30.25 in 10.0 mi WSW 11.5 mph - N/A   Overcast
10:55 AM 42.1 °F 35.7 °F 32.2 °F 68% 30.25 in 10.0 mi SW 11.5 mph - N/A   Overcast
11:15 AM 42.3 °F 35.5 °F 32.5 °F 68% 30.25 in 10.0 mi WSW 12.7 mph - N/A   Overcast
11:35 AM 44.1 °F 38.6 °F 33.6 °F 67% 30.23 in 10.0 mi West 10.4 mph 16.1 mph N/A   Mostly Cloudy
11:55 AM 45.9 °F 39.7 °F 35.2 °F 66% 30.22 in 10.0 mi WSW 13.8 mph 19.6 mph N/A   Scattered Clouds
12:15 PM 44.8 °F 38.7 °F 34.5 °F 67% 30.21 in 10.0 mi WSW 12.7 mph - N/A   Overcast
12:35 PM 44.6 °F 38.4 °F 35.1 °F 69% 30.20 in 10.0 mi WSW 12.7 mph 20.7 mph N/A   Overcast
12:55 PM 42.8 °F 34.0 °F 35.4 °F 75% 30.21 in 10.0 mi West 20.7 mph 26.5 mph N/A   Overcast
1:15 PM 40.3 °F 31.3 °F 34.9 °F 81% 30.22 in 10.0 mi WNW 18.4 mph 26.5 mph N/A   Overcast
1:35 PM 39.6 °F 30.3 °F 34.0 °F 80% 30.22 in 10.0 mi WNW 18.4 mph 25.3 mph N/A   Overcast
1:55 PM 37.8 °F 28.6 °F 32.2 °F 80% 30.23 in 10.0 mi WNW 16.1 mph 25.3 mph N/A   Overcast
2:15 PM 36.9 °F 26.8 °F 32.0 °F 83% 30.23 in 10.0 mi West 18.4 mph 23.0 mph N/A   Overcast
2:35 PM 36.5 °F 25.7 °F 31.5 °F 82% 30.23 in 10.0 mi WNW 20.7 mph 26.5 mph N/A   Overcast
2:55 PM 36.5 °F 27.0 °F 30.9 °F 80% 30.23 in 10.0 mi WNW 16.1 mph 19.6 mph N/A   Overcast
3:15 PM 36.9 °F 26.8 °F 30.9 °F 79% 30.24 in 10.0 mi WNW 18.4 mph - N/A   Overcast
3:35 PM 37.4 °F 29.3 °F 31.1 °F 78% 30.25 in 10.0 mi WNW 12.7 mph 20.7 mph N/A   Overcast
3:55 PM 37.4 °F 28.5 °F 31.1 °F 78% 30.25 in 10.0 mi WNW 15.0 mph - N/A   Overcast
4:55 PM 34.7 °F 28.8 °F 30.7 °F 85% 30.25 in 10.0 mi West 6.9 mph - N/A   Clear
5:15 PM 33.3 °F 26.4 °F 30.2 °F 89% 30.25 in 10.0 mi West 8.1 mph - N/A   Clear
5:35 PM 32.9 °F 25.9 °F 30.2 °F 90% 30.26 in 10.0 mi West 8.1 mph - N/A   Clear
5:55 PM 33.1 °F 25.5 °F 30.4 °F 90% 30.26 in 10.0 mi WSW 9.2 mph - N/A   Clear
6:15 PM 32.7 °F 26.4 °F 30.2 °F 90% 30.27 in 10.0 mi WSW 6.9 mph - N/A   Clear
6:35 PM 34.0 °F 28.8 °F 31.1 °F 89% 30.26 in 10.0 mi WSW 5.8 mph - N/A   Clear
6:55 PM 33.1 °F 27.7 °F 30.6 °F 90% 30.26 in 10.0 mi SW 5.8 mph - N/A   Clear
7:15 PM 33.4 °F 28.1 °F 30.9 °F 90% 30.25 in 10.0 mi SW 5.8 mph - N/A   Clear
7:35 PM 34.3 °F 28.4 °F 31.6 °F 90% 30.25 in 10.0 mi SW 6.9 mph - N/A   Clear
7:55 PM 32.5 °F 25.5 °F 30.2 °F 91% 30.25 in 10.0 mi SW 8.1 mph - N/A   Clear
8:15 PM 32.0 °F 24.8 °F 29.3 °F 90% 30.25 in 10.0 mi SW 8.1 mph - N/A   Clear
8:35 PM 32.0 °F 25.6 °F 30.0 °F 92% 30.24 in 10.0 mi SW 6.9 mph - N/A   Clear
8:55 PM 32.0 °F 25.6 °F 29.7 °F 91% 30.25 in 10.0 mi WSW 6.9 mph - N/A   Clear
9:15 PM 32.2 °F 23.8 °F 30.2 °F 92% 30.25 in 10.0 mi West 10.4 mph - N/A   Clear
9:35 PM 32.5 °F 24.2 °F 30.4 °F 92% 30.25 in 10.0 mi West 10.4 mph - N/A   Clear
9:55 PM 33.4 °F 24.3 °F 30.9 °F 90% 30.25 in 10.0 mi West 12.7 mph - N/A   Clear
10:15 PM 34.3 °F 27.7 °F 31.1 °F 88% 30.26 in 10.0 mi West 8.1 mph - N/A   Clear
10:35 PM 34.3 °F 28.4 °F 30.9 °F 87% 30.25 in 10.0 mi West 6.9 mph - N/A   Clear
10:55 PM 33.1 °F 26.9 °F 29.8 °F 88% 30.25 in 10.0 mi WNW 6.9 mph - N/A   Clear
11:15 PM 33.3 °F 26.4 °F 29.8 °F 87% 30.25 in 10.0 mi West 8.1 mph - N/A   Clear
11:35 PM 33.8 °F 27.7 °F 29.8 °F 85% 30.26 in 10.0 mi WNW 6.9 mph - N/A   Clear
11:55 PM 32.5 °F 26.2 °F 28.9 °F 87% 30.26 in 10.0 mi West 6.9 mph - N/A   Clear